www.pogodaiklimat.ru

Погода и климат >> Архив погоды >> Индонезия >> Saumlaki


ПОГОДА в Saumlaki

  • Прогноз погоды в Saumlaki
  • Монитор погоды в Saumlaki
  • Климат города

АРХИВ ПОГОДЫ в Saumlaki

Время (UTC), дата Ветер
(напр.,м/с)
 
Видим.   Явления Облачность Т
(С)
Тd
(С)
f
(%)
Тe
(С)
Тes
(С)
Комфортность P
(гПа)
Po
(гПа)
Тmin
(С)
Tmax
(С)
R
(мм)
R24
(мм)
S
(см)
18 11.12 штиль 0 15 км 6/3 600 м
[Cu med, cong Cs]
+27.7 +26.1 91 +42 +42 опасность
перегрева
1005.7 1002.9
21 11.12 ЮЗ 2 15 км 6/3 600 м
[Cu med, cong Cs]
+27.8 +26.0 90 +42 +42 опасность
перегрева
1007.1 1004.2
00 12.12 З 3 15 км 4/4 600 м
[Cu med, cong Cs]
+31.6 +27.4 78 +50 +55 опасность
перегрева
1007.5 1004.7 +27.3 1
03 12.12 З 4 15 км 4/4 600 м
[Cu med, cong Cs]
+33.6 +26.8 68 +51 +59 опасность
перегрева
1006.2 1003.4
06 12.12 З 4 15 км 9/5 500 м
[Cb cap Cs]
+33.0 +26.4 68 +49 +53 опасность
перегрева
1005.4 1002.5
09 12.12 З 3 8000 м гроза, ливневой дождь 10/5 480 м
[Cb cap As op]
+28.1 +26.5 91 +43 +43 опасность
перегрева
1008.8 1005.8 2
12 12.12 9000 м н/о +27.9 +26.5 92 +43 +43 опасность
перегрева
1007.7 1004.8 +34.6 16
15 12.12 СЗ 2 10 км 4/4 600 м
[Cu med, cong Cs]
+26.4 +25.6 95 +39 +39 очень
душно
1008.2 1006.2
18 12.12 З 3 15 км 6/3 600 м
[Cu med, cong Cs]
+27.4 +26.1 93 +41 +41 опасность
перегрева
1006.3 1003.4
21 12.12 З 4 15 км 8/3 600 м
[Cu med, cong Cs]
+28.2 +26.2 89 +43 +43 опасность
перегрева
1006.8 1003.9
00 13.12 З 2 10 км 8/3 600 м
[Cu med, cong Cs]
+30.2 +25.1 74 +44 +49 опасность
перегрева
1008.6 1006.7 +24.6 0.0
03 13.12 З 6 10 км 8/4 600 м
[Cu med, cong Cs]
+31.9 +25.8 70 +47 +52 опасность
перегрева
1006.5 1003.7
06 13.12 З 5 10 км 8/5 600 м
[Cu med, cong Cs]
+32.7 +25.8 67 +48 +51 опасность
перегрева
1006.0 1002.5
09 13.12 З 4 12 км {дождь} 5/3 600 м
[Cu med, cong Cs]
+30.5 +26.4 79 +47 +47 опасность
перегрева
1005.4 1002.5 0.0
12 13.12 З 3 15 км 3/1 600 м
[Cu hum Cs]
+29.4 +26.0 82 +44 +44 опасность
перегрева
1007.3 1004.5 +34.0 0.0
15 13.12 З 2 15 км 3/1 600 м
[Cu hum Cs]
+29.2 +26.3 84 +44 +44 опасность
перегрева
1007.4 1004.5
18 13.12 З 2 10 км зарница {дождь} 6/6 480 м
[Cb cap Cs]
+27.0 +25.6 92 +40 +40 очень
душно
1006.1 1003.2 0.4
21 13.12 З 4 6000 м в посл. час дождь {гроза} 9/6 480 м
[Cb cap As op]
+25.2 +24.2 94 +35 +35 очень
душно
1007.6 1004.8 18
00 14.12 З 5 12 км 9/4 600 м
[Cu med, cong As op Cs]
+29.8 +26.3 82 +46 +47 опасность
перегрева
1008.1 1005.2 +27.0 19
03 14.12 З 8 12 км 9/6 480 м
[Cu Sc As op Cs]
+30.9 +26.7 78 +48 +49 опасность
перегрева
1007.2 1004.4
06 14.12 З 3 10 км в посл. час гроза 9/5 480 м
[Cb cap Ac As Cs]
+30.0 +25.6 77 +44 +47 опасность
перегрева
1004.9 1002.0
09 14.12 З 3 15 км 8/3 600 м
[Cu med, cong Cs]
+29.8 +26.0 80 +45 +45 опасность
перегрева
1005.3 1002.4
12 14.12 З 2 15 км 8/3 600 м
[Cu med, cong Cs]
+28.6 +26.3 87 +43 +43 опасность
перегрева
1007.7 1004.8 +33.4
15 14.12 штиль 0 15 км зарница 6/5 480 м
[Cb cap Cs]
+27.6 +25.8 90 +41 +41 опасность
перегрева
1007.5 1004.6
18 14.12 штиль 0 9000 м в посл. час дождь 8/6 600 м
[Cu med, cong Cs]
+26.8 +25.1 90 +39 +39 очень
душно
1006.7 1004.0 2
21 14.12 штиль 0 9000 м 8/6 600 м
[Cu med, cong Cs]
+26.2 +24.5 90 +37 +37 очень
душно
1006.9 1004.1
00 15.12 З 9 5000 м гроза, ливневой дождь 10/6 300 м
[Cb cap As op]
+25.0 +24.0 94 +34 +34 очень
душно
1009.7 1006.8 +24.6 25
03 15.12 З 3 12 км {дождь} 9/4 600 м
[Cu med, cong Ac As Cs]
+26.1 +25.0 94 +37 +43 очень
душно
1007.9 1005.0 1
06 15.12 ЮЗ 6 12 км 9/4 480 м
[Cb cap Ac As Cs]
+31.7 +27.3 78 +50 +52 опасность
перегрева
1005.1 1002.2 1
09 15.12 З 2 15 км 9/1 600 м
[Cu med, cong Ac As Cs]
+29.3 +25.2 79 +43 +43 опасность
перегрева
1006.1 1003.2
12 15.12 З 3 15 км зарница 9/4 500 м
[Cb cap Ac As]
+28.2 +26.2 89 +43 +43 опасность
перегрева
1007.4 1004.6 +34.0
15 15.12 З 2 15 км гроза без осадков 9/4 500 м
[Cb cap Ac As]
+27.2 +25.6 91 +40 +40 очень
душно
1007.9 1005.0
18 15.12 ЮЗ 4 8000 м слабый ливневой дождь, в посл. час гроза 10/5 480 м
[Cb cap As op]
+26.6 +25.2 92 +38 +38 очень
душно
1006.4 1003.5 2
21 15.12 СЗ 3 10 км 9/3 600 м
[Cu med, cong Ac As]
+26.9 +25.3 91 +39 +39 очень
душно
1008.1 1005.2
00 16.12 З 3 8000 м гроза без осадков 10/5 300 м
[Cb cap Ac As]
+27.0 +25.9 94 +40 +42 очень
душно
1009.8 1006.9 +25.0 0.0
03 16.12 З 4 15 км 9/4 600 м
[Cu med, cong Ac As]
+29.3 +25.5 80 +43 +47 опасность
перегрева
1008.9 1006.1
06 16.12 З 3 15 км 9/4 600 м
[Cu med, cong Ac trans Cs]
+33.0 +27.0 71 +51 +55 опасность
перегрева
1006.6 1003.8
09 16.12 З 3 15 км 9/3 600 м
[Cu med, cong Ac As]
+29.0 +25.5 81 +43 +43 опасность
перегрева
1007.1 1004.3
12 16.12 З 2 15 км 9/6 600 м
[Cu med, cong Ac As]
+27.6 +25.8 90 +41 +41 опасность
перегрева
1008.2 1005.3 +31.6
15 16.12 штиль 0 15 км зарница 9/4 500 м
[Cb cap Ac As]
+27.7 +25.7 89 +41 +41 опасность
перегрева
1007.9 1005.0
18 16.12 штиль 0 15 км 6/3 600 м
[Cu med, cong Ac As]
+26.8 +25.5 93 +39 +39 очень
душно
1006.5 1003.6
21 16.12 штиль 0 15 км 9/4 600 м
[Cu med, cong Ac As]
+27.3 +25.3 89 +40 +40 очень
душно
1007.5 1004.7
00 17.12 штиль 0 15 км 9/3 600 м
[Cu med, cong Cs]
+29.3 +25.9 82 +44 +51 опасность
перегрева
1009.1 1006.2 +25.5
03 17.12 ЮЗ 2 15 км в посл. час дождь 9/5 500 м
[Cb cap Ac As]
+29.2 +26.0 83 +44 +48 опасность
перегрева
1008.2 1005.3 0.0
06 17.12 З 2 15 км {дождь} 9/4 500 м
[Cb cap Ac As]
+30.3 +26.4 80 +46 +49 опасность
перегрева
1006.8 1003.9 0.0
09 17.12 З 2 15 км 9/4 600 м
[Cu med, cong Ac As]
+29.8 +25.7 79 +44 +44 опасность
перегрева
1006.7 1003.8
12 17.12 штиль 0 15 км 9/4 600 м
[Cu med, cong Ac As]
+28.4 +26.1 87 +43 +43 опасность
перегрева
1008.2 1005.4 +31.4
15 17.12 СЗ 2 10 км зарница {дождь} 9/5 480 м
[Cb cap As op]
+27.4 +26.2 93 +41 +41 опасность
перегрева
1008.3 1005.4 0.0
18 17.12 З 5 8000 м в посл. час дождь 9/5 500 м
[Cb cap As op]
+26.6 +25.8 95 +39 +39 очень
душно
1006.5 1003.7 0.4
21 17.12 З 2 4000 м гроза, ливневой дождь 10/6 450 м
[Cb cap As op]
+25.2 +24.8 98 +36 +36 очень
душно
1008.1 1005.2 5
00 18.12 СЗ 4 5000 м 10/6 450 м
[Cb cap As op]
+25.4 +24.8 96 +36 +36 очень
душно
1010.1 1007.3 +24.8 29
03 18.12 СЗ 2 7000 м 10/3 600 м
[Cu med, cong As op]
+29.4 +27.1 87 +46 +49 опасность
перегрева
1009.0 1006.0 3
06 18.12 СЗ 5 6000 м в посл. час дождь 10/3 600 м
[Cu med, cong As op]
+27.2 +26.6 97 +42 +43 опасность
перегрева
1008.0 1005.2 2
09 18.12 СЗ 4 8000 м в посл. час дождь 10/4 480 м
[Cu Sc As op]
+26.0 +24.5 91 +36 +36 очень
душно
1009.2 1006.3 3
12 18.12 СЗ 5 10 км 10/4 600 м
[Cu med, cong Ac As]
+26.0 +25.1 95 +37 +37 очень
душно
1010.6 1007.8 +30.6 3

 

Местоположение метеостанции Saumlaki (Индонезия): широта -7.98 долгота 131.30 высота над уровнем моря 24 м.

В архиве по умолчанию представлена погода в Saumlaki за последнюю неделю. Архивные данные за месяц целиком и за предыдущие месяцы, начиная с января 2011 года, Вы можете получить, выбрав интересующий диапазон дат из раскрывающегося списка и нажав кнопку "Ввод!".


*Определитесь, кто Вы:
робот инопланетянин человек

Внимание! Время в таблицах - всемирное. Для получения местного времени необходимо прибавить поправку, которая в Saumlaki равна 9 ч.

Смотрите также архив погоды в соседних городах и на ближайших метеорологических станциях:

Погода в Tual (Индонезия) (302 км)
Погода в Cape Don (Северная территория, Австралия) (375 км)
Погода в Mccluer Island (Северная территория, Австралия) (388 км)
Погода в Garden Point (Северная территория, Австралия) (392 км)
Погода в Neira (Индонезия) (414 км)
Погода в Bathurst Island (Северная территория, Австралия) (446 км)
Погода в Warruwi (Северная территория, Австралия) (468 км)
Погода в Geser (Индонезия) (468 км)
Погода в Point Stuart (Северная территория, Австралия) (477 км)
Погода в Darwin (Северная территория, Австралия) (495 км)

Пояснения к столбцам:

Ветер - указаны скорость ветра в м/с - средняя за 10 мин, порывы в срок и между сроками (в фигурных скобках) и направление, откуда дует ветер: С - северный, СВ - северо-восточный, В - восточный, ЮВ - юго-восточный, Ю - южный, ЮЗ - юго-западный, З - западный, СЗ - северо-западный.
Видимость - горизонтальная дальность видимости в метрах или километрах. При видимости от 1 до 10 км при отсутствии осадков обычно наблюдается дымка, при ухудшении видимости до 1 км и менее - туман. В сухую погоду видимость может ухудшаться дымом, пылью или мглою.
Явления - указаны атмосферные явления, наблюдавшиеся в срок или в последний час перед сроком; фигурными скобками обозначены явления, наблюдавшиеся между сроками (за 1-3 часа до срока); квадратными скобками обозначены град или гололедные отложения с указанием их диаметра в мм.
Облачность - указаны через наклонную черту общая и нижняя облачность в баллах и высота нижней границы облаков в метрах; квадратными скобками обозначены формы облаков: Ci - перистые, Cs - перисто-слоистые, Cc - перисто-кучевые, Ac - высококучевые, As - высокослоистые, Sc - слоисто-кучевые, Ns - слоисто-дождевые, Cu - кучевые, Cb - кучево-дождевые. Подробнее классификацию облаков см. в Атласе облаков (PDF).
T - Температура воздуха - температура, измеренная на высоте 2 м над землей.
Td - Температура точки росы - температура, при понижении до которой содержащийся в воздухе водяной пар достигнет насыщения.
f - Относительная влажность воздуха - влажноcть воздуха, измеренная на высоте 2 м над землей.
Te - Эффективная температура - температура, которую ощущает одетый по сезону человек в тени. Характеристика душности погоды. При расчете учитывается влияние влажности воздуха и скорости ветра на теплоощущения человека.
Tes - Эффективная температура на солнце - температура, которую ощущает человек, с поправкой на солнечный нагрев. Характеристика знойности погоды. Зависит от высоты солнца над горизонтом, облачности и скорости ветра. Ночью, в пасмурную погоду, а также при ветре 12 м/с и более поправка равна нулю.
P - Атмосферное давление - приведенное к уровню моря атмосферное давление.
Po - Атмосферное давление - измеренное на уровне метеостанции атмосферное давление.
Tmin - Минимальная температура - минимум температуры воздуха на высоте 2 м над землей.
Tmax - Максимальная температура - максимум температуры воздуха на высоте 2 м над землей.
R - Количество осадков - Количество выпавших осадков за период времени, мм. При наведении курсора мыши на число - период времени, за который выпало указанное количество осадков.
R24 - Количество осадков - Количество выпавших осадков за 24 часа, мм.
S - Снежный покров - Высота снежного покрова, см. При наведении курсора мыши на число - состояние снежного покрова и степень покрытия местности в баллах.